Total_Precipitation_Accumulation
0.05 0.09 0.15 0.18 0.18 0.16 0.13 0.11 0.17 0.21 0.40 0.45 0.56 0.73 0.92 0.98 0.86 0.76 0.83 0.86 0.86 0.93 1.11 1.25 1.42 1.48 1.47 1.50 1.59 1.74 1.88 1.99 2.26 2.43 2.43 2.30 2.24 2.32 2.35 2.40 2.33 2.51 2.52 2.54
0.05 0.08 0.14 0.17 0.18 0.14 0.10 0.10 0.14 0.20 0.33 0.42 0.57 0.68 0.81 0.77 0.74 0.82 0.87 0.86 0.82 0.91 1.12 1.19 1.24 1.34 1.38 1.45 1.56 1.66 1.76 1.92 2.18 2.42 2.55 2.49 2.53 2.68 2.69 2.62 2.70 2.82 2.79 2.78
0.08 0.12 0.14 0.23 0.19 0.15 0.15 0.14 0.17 0.26 0.32 0.38 0.51 0.67 0.84 0.86 0.86 0.91 0.93 0.91 0.89 0.88 1.00 1.23 1.18 1.19 1.32 1.45 1.64 1.83 2.07 2.27 2.40 2.60 2.74 2.70 2.61 2.63 2.65 2.68 2.69 2.76 2.80 2.86
0.14 0.17 0.26 0.26 0.23 0.22 0.23 0.28 0.29 0.32 0.40 0.47 0.58 0.72 0.85 0.92 0.91 1.01 1.11 1.20 1.23 1.28 1.28 1.37 1.33 1.34 1.45 1.60 1.81 1.93 2.06 2.27 2.43 2.63 2.72 2.79 2.83 2.78 2.85 2.97 3.00 3.02 3.00 2.97
0.24 0.26 0.31 0.32 0.33 0.35 0.39 0.52 0.56 0.61 0.67 0.68 0.72 0.77 0.92 1.05 1.14 1.24 1.22 1.27 1.38 1.44 1.47 1.48 1.55 1.70 1.89 1.96 2.15 2.33 2.44 2.61 2.70 2.72 2.78 2.82 2.85 2.99 3.12 3.23 3.22 3.23 3.19 3.15
0.34 0.43 0.51 0.52 0.50 0.46 0.56 0.90 0.80 0.87 0.98 0.98 1.05 1.29 1.36 1.35 1.35 1.39 1.37 1.40 1.48 1.50 1.56 1.76 1.82 1.89 2.07 2.30 2.47 2.66 2.82 2.93 3.00 3.04 3.03 2.99 2.99 3.10 3.18 3.24 3.25 3.26 3.13 3.15
0.48 0.50 0.55 0.56 0.55 0.56 0.99 1.36 1.28 1.28 1.32 1.25 1.40 1.50 1.38 1.30 1.42 1.48 1.55 1.61 1.63 1.67 1.77 1.89 1.96 2.04 2.22 2.51 2.76 2.97 3.01 3.06 3.12 3.21 3.36 3.48 3.51 3.33 3.18 3.18 3.26 3.30 3.26 3.29
0.74 0.90 0.96 0.68 0.75 1.12 1.40 1.33 1.56 1.44 1.30 1.32 1.33 1.29 1.24 1.26 1.42 1.60 1.73 1.78 1.81 1.85 1.89 1.92 2.05 2.20 2.31 2.57 2.72 2.91 2.95 3.07 3.15 3.18 3.12 3.15 3.43 3.53 3.49 3.38 3.25 3.23 3.28 3.18
1.08 1.21 1.08 0.90 0.96 1.24 1.28 1.30 1.44 1.44 1.25 1.22 1.23 1.18 1.20 1.27 1.39 1.55 1.69 1.75 1.75 1.81 1.94 1.93 1.96 2.16 2.44 2.52 2.59 2.64 2.76 2.89 3.10 3.20 3.27 3.25 3.26 3.36 3.37 3.29 3.08 2.86 2.87 2.89
1.42 1.45 1.29 1.12 1.01 1.09 1.16 1.23 1.29 1.42 1.43 1.31 1.27 1.22 1.28 1.32 1.41 1.63 1.72 1.72 1.77 1.73 1.76 1.87 1.98 2.17 2.28 2.31 2.45 2.69 2.81 2.85 2.94 3.03 3.07 3.16 3.25 3.22 3.16 3.11 3.02 2.84 2.81 2.83
1.94 1.99 1.83 1.65 1.41 1.30 1.26 1.29 1.38 1.50 1.56 1.61 1.56 1.49 1.51 1.45 1.48 1.61 1.67 1.63 1.72 1.81 1.85 1.91 1.99 2.15 2.31 2.35 2.39 2.53 2.60 2.57 2.66 2.83 2.93 3.00 3.14 3.20 3.05 2.92 2.91 2.78 2.81 2.98
2.32 2.15 2.15 2.00 1.65 1.49 1.50 1.59 1.58 1.60 1.63 1.61 1.60 1.58 1.60 1.63 1.56 1.49 1.47 1.59 1.74 1.82 1.91 1.96 2.01 2.08 2.11 2.16 2.30 2.46 2.54 2.56 2.55 2.61 2.76 2.86 2.82 2.88 2.92 2.68 2.60 2.41 2.43 2.51
1.95 1.96 2.02 1.90 1.73 1.62 1.66 1.65 1.70 1.76 1.72 1.63 1.57 1.57 1.58 1.63 1.69 1.60 1.55 1.58 1.71 1.76 1.79 1.86 1.88 1.93 1.93 1.99 2.23 2.50 2.60 2.72 2.68 2.48 2.43 2.48 2.51 2.49 2.50 2.41 2.16 2.02 1.97 1.91
1.96 1.99 2.08 1.98 1.94 1.78 1.76 1.65 1.60 1.58 1.52 1.52 1.57 1.58 1.54 1.53 1.64 1.75 1.72 1.72 1.85 1.91 1.79 1.69 1.70 1.76 1.81 1.87 2.00 2.16 2.25 2.34 2.32 2.19 2.13 2.10 2.13 2.14 2.05 2.06 1.97 1.81 1.75 1.71
1.81 1.82 1.94 1.87 1.83 1.83 1.85 1.80 1.69 1.59 1.48 1.54 1.60 1.60 1.64 1.72 1.81 1.92 1.94 1.99 2.05 2.04 1.88 1.70 1.65 1.68 1.74 1.83 1.94 1.99 2.07 2.08 2.00 2.01 2.06 2.11 2.19 2.23 2.15 2.06 2.06 1.99 1.85 1.68
1.66 1.73 1.74 1.82 1.97 1.86 1.79 1.81 1.82 1.74 1.60 1.60 1.65 1.63 1.64 1.74 1.87 1.91 1.94 2.10 2.28 2.27 2.11 1.96 1.81 1.72 1.68 1.81 1.97 2.01 1.99 2.14 2.07 1.95 1.97 2.14 2.26 2.24 2.27 2.32 2.26 2.29 2.26 1.95
1.80 1.84 1.77 1.83 1.96 1.99 1.93 1.85 1.87 1.82 1.77 1.78 1.78 1.68 1.68 1.77 1.90 2.00 1.91 1.89 1.99 2.06 2.04 1.95 1.82 1.69 1.70 1.77 1.85 1.97 1.96 2.01 2.03 1.92 1.93 2.05 2.16 2.26 2.27 2.31 2.39 2.39 2.36 2.17
1.68 1.59 1.57 1.65 1.71 1.80 1.89 1.90 1.90 1.81 1.75 1.74 1.78 1.75 1.76 1.85 1.99 2.03 1.94 1.82 1.75 1.77 1.83 1.77 1.68 1.63 1.66 1.68 1.77 1.93 1.95 1.94 1.95 1.97 2.02 2.08 2.12 2.25 2.41 2.44 2.45 2.51 2.38 2.29
1.65 1.54 1.48 1.48 1.47 1.53 1.67 1.78 1.81 1.75 1.66 1.68 1.75 1.74 1.70 1.70 1.82 1.93 1.90 1.97 1.99 1.90 1.78 1.65 1.61 1.52 1.57 1.63 1.65 1.72 1.75 1.81 1.94 1.99 2.03 2.08 2.11 2.17 2.26 2.30 2.36 2.41 2.27 2.23
1.79 1.72 1.60 1.51 1.47 1.45 1.53 1.57 1.65 1.70 1.64 1.64 1.66 1.69 1.66 1.65 1.75 1.97 2.09 2.15 2.18 2.05 1.88 1.71 1.43 1.36 1.41 1.48 1.46 1.36 1.39 1.47 1.53 1.64 1.77 1.86 1.91 2.00 1.99 1.97 2.02 2.09 2.02 2.01
1.95 1.86 1.77 1.67 1.67 1.57 1.52 1.48 1.52 1.63 1.67 1.72 1.80 1.83 1.73 1.65 1.68 1.94 2.30 2.37 2.19 1.98 1.84 1.77 1.43 1.23 1.13 1.23 1.35 1.32 1.37 1.38 1.37 1.46 1.54 1.63 1.73 1.81 1.89 1.93 1.92 1.87 1.84 1.81
2.03 1.94 1.85 1.74 1.65 1.62 1.57 1.51 1.52 1.60 1.64 1.68 1.67 1.66 1.70 1.64 1.65 1.86 2.08 2.27 2.12 1.95 1.60 1.47 1.33 1.14 1.09 1.07 1.07 1.18 1.28 1.34 1.35 1.40 1.45 1.50 1.58 1.66 1.75 1.76 1.73 1.65 1.62 1.63
2.06 1.92 1.84 1.74 1.66 1.62 1.58 1.58 1.56 1.60 1.60 1.56 1.52 1.61 1.71 1.72 1.68 1.85 1.96 1.74 1.59 1.63 1.45 1.36 1.27 1.13 1.05 1.03 1.05 1.08 1.15 1.23 1.27 1.28 1.30 1.34 1.41 1.46 1.51 1.56 1.58 1.51 1.52 1.53
1.94 1.97 2.02 1.96 1.75 1.64 1.67 1.65 1.62 1.61 1.49 1.48 1.49 1.53 1.58 1.62 1.60 1.53 1.56 1.58 1.54 1.50 1.37 1.36 1.23 1.06 0.95 0.89 0.97 1.06 1.14 1.20 1.21 1.21 1.21 1.27 1.34 1.38 1.46 1.54 1.59 1.54 1.49 1.42
1.86 1.86 1.91 1.92 1.80 1.69 1.64 1.61 1.65 1.67 1.58 1.54 1.49 1.47 1.45 1.48 1.53 1.51 1.48 1.46 1.48 1.41 1.28 1.31 1.23 1.18 1.08 1.05 1.09 1.15 1.18 1.25 1.29 1.27 1.30 1.34 1.38 1.44 1.48 1.52 1.54 1.50 1.45 1.43
1.84 1.79 1.80 1.77 1.67 1.67 1.68 1.68 1.74 1.75 1.66 1.59 1.56 1.51 1.44 1.37 1.41 1.48 1.57 1.51 1.35 1.30 1.21 1.20 1.17 1.19 1.16 1.20 1.27 1.26 1.21 1.25 1.28 1.26 1.32 1.44 1.50 1.51 1.48 1.42 1.42 1.44 1.35 1.29
1.81 1.76 1.77 1.70 1.65 1.61 1.61 1.60 1.67 1.75 1.67 1.57 1.59 1.57 1.54 1.56 1.58 1.59 1.59 1.57 1.45 1.32 1.24 1.19 1.13 1.06 1.07 1.11 1.17 1.23 1.23 1.25 1.25 1.27 1.33 1.40 1.42 1.39 1.34 1.32 1.36 1.36 1.27 1.23